World > North America > United States > Texas

Hourly Oenaville, TX Regional Weather

Feedback E-mail the Weather

Quick WX

Oenaville, TX Weather Maps

°F °C°F °C
Oenaville Weather Map
UTC Time: 7/4/2022, 09:39
Your Time:

Oenaville, TX Regional Weather

Expires:202207041000;;658345
ASUS44 KSJT 040915
RWRSJT
WEST CENTRAL TEXAS REGIONAL WEATHER ROUNDUP
NATIONAL WEATHER SERVICE SAN ANGELO TX
400 AM CDT MON JUL 04 2022

NOTE: "FAIR" INDICATES FEW OR NO CLOUDS BELOW 12,000 FEET WITH NO
SIGNIFICANT WEATHER AND/OR OBSTRUCTIONS TO VISIBILITY.


TXZ145-158-159-173-191-192-194-205-207-220-223-041000-
CENTRAL AND SOUTH CENTRAL TEXAS
  
CITY           SKY/WX    TMP DP  RH WIND       PRES   REMARKS
AUSTIN/BERGSTM MOCLDY    77  74  90 S3        30.03F                  
WACO           CLEAR     81  72  74 S14       30.01S                  
HILLSBORO      SUNNY     82  69  66 S12       30.00F                  
TEMPLE         CLEAR     78  74  87 S13       30.03S                  
KILLEEN-GRAY   CLEAR     77  71  80 S9        30.00F                  
FORT HOOD      CLEAR     78  71  79 S9        30.02F                  
GEORGETOWN     MOCLDY    79  72  79 S10       30.05F                  
LAGO VISTA     CLOUDY    76  72  85 S12G21    30.06F                  
SAN MARCOS     CLEAR     76  76 100 S5        30.04F                  
NEW BRAUNFELS  MOCLDY    76  74  93 S5        30.03S                  
RANDOLPH AFB   PTCLDY    76  75  96 S7        30.02S                  
SAN ANTONIO    MOCLDY    78  73  84 S15       30.04F                  
STINSON          N/A     77  74  90 SE6       30.01F                  
PLEASANTON     NOT AVBL                                               
LA GRANGE      CLEAR     78  78  99 S3        30.01S                  
GIDDINGS       SUNNY     77  74  92 CALM      30.04S                  
$$


SKY/WX - Weather  TMP - Temperature  DP - Dew Point  RH - Humidity
WIND - Wind Direction/Speed PRES - Barometric Pressure VSB - Visibility
WCI - Wind Chill Index E13G22 Wind - East Wind 13 mph/Gusts of 22 mph

Trending Headlines

Oenaville Radar Loop



Oenaville Quick Facts


National Two Day Weather Forecast


E-mail the Oenaville Weather Forecast

Voice your opinion or tell us about page issues...